| time (UTC) | temp F | wind direction | speed MPH | gust MPH | rain 1hr in | rain 24hr in | rain mn in | humidity % | barometer mb |
| 20260507193158 | 79 | 152 | 1.0 | 2.0 | 0.00 | 0.00 | 0.00 | 93 | 1010.0 |
| 20260507192657 | 79 | 152 | 2.0 | 2.0 | 0.00 | 0.00 | 0.00 | 93 | 1011.0 |
| 20260507192157 | 79 | 155 | 0.0 | 0.0 | 0.00 | 0.00 | 0.00 | 93 | 1010.0 |
| 20260507191657 | 79 | 124 | 1.0 | 2.0 | 0.00 | 0.00 | 0.00 | 93 | 1010.0 |
| 20260507191157 | 79 | 140 | 2.0 | 2.0 | 0.00 | 0.00 | 0.00 | 93 | 1010.0 |
| 20260507190658 | 79 | 150 | 2.0 | 2.0 | 0.00 | 0.00 | 0.00 | 93 | 1011.0 |
| 20260507190158 | 79 | 119 | 3.0 | 3.0 | 0.00 | 0.00 | 0.00 | 93 | 1011.0 |
| 20260507185657 | 79 | 133 | 2.0 | 2.0 | 0.00 | 0.00 | 0.00 | 93 | 1011.0 |
| 20260507185157 | 79 | 151 | 1.0 | 1.0 | 0.00 | 0.00 | 0.00 | 93 | 1011.0 |
| 20260507184703 | 79 | 165 | 2.0 | 2.0 | 0.00 | 0.00 | 0.00 | 93 | 1011.0 |
| 20260507184157 | 79 | 141 | 3.0 | 3.0 | 0.00 | 0.00 | 0.00 | 93 | 1011.0 |
| 20260507183657 | 79 | 134 | 3.0 | 3.0 | 0.00 | 0.00 | 0.00 | 93 | 1011.0 |
| 20260507183158 | 79 | 109 | 3.0 | 3.0 | 0.00 | 0.00 | 0.00 | 92 | 1011.0 |
| 20260507182658 | 79 | 110 | 4.0 | 5.0 | 0.00 | 0.00 | 0.00 | 92 | 1011.0 |
| 20260507182157 | 79 | 123 | 5.0 | 5.0 | 0.00 | 0.00 | 0.00 | 92 | 1011.0 |
| 20260507181658 | 80 | 106 | 3.0 | 3.0 | 0.00 | 0.00 | 0.00 | 91 | 1011.0 |
| 20260507181158 | 80 | 139 | 1.0 | 1.0 | 0.00 | 0.00 | 0.00 | 91 | 1011.0 |
| 20260507180700 | 80 | 124 | 3.0 | 3.0 | 0.00 | 0.00 | 0.00 | 91 | 1011.0 |
| 20260507180157 | 80 | 135 | 2.0 | 2.0 | 0.00 | 0.00 | 0.00 | 91 | 1011.0 |
| 20260507175657 | 80 | 142 | 2.0 | 2.0 | 0.00 | 0.00 | 0.00 | 90 | 1011.0 |
| 20260507175157 | 80 | 157 | 0.0 | 1.0 | 0.00 | 0.00 | 0.00 | 90 | 1011.0 |
| 20260507174658 | 80 | 136 | 2.0 | 2.0 | 0.00 | 0.00 | 0.00 | 90 | 1011.0 |
| 20260507174157 | 80 | 158 | 1.0 | 2.0 | 0.00 | 0.00 | 0.00 | 90 | 1011.0 |
| 20260507173659 | 80 | 147 | 1.0 | 1.0 | 0.00 | 0.00 | 0.00 | 90 | 1011.0 |
| 20260507173158 | 80 | 144 | 1.0 | 1.0 | 0.00 | 0.00 | 0.00 | 90 | 1012.0 |
| 20260507172657 | 80 | 129 | 2.0 | 2.0 | 0.00 | 0.00 | 0.00 | 89 | 1012.0 |
| 20260507172159 | 80 | 140 | 1.0 | 1.0 | 0.00 | 0.00 | 0.00 | 89 | 1012.0 |
| 20260507171658 | 80 | 89 | 3.0 | 3.0 | 0.00 | 0.00 | 0.00 | 88 | 1012.0 |
| 20260507171157 | 80 | 150 | 0.0 | 0.0 | 0.00 | 0.00 | 0.00 | 88 | 1012.0 |
| 20260507170658 | 80 | 117 | 3.0 | 3.0 | 0.00 | 0.00 | 0.00 | 88 | 1012.0 |
| 20260507170157 | 81 | 132 | 2.0 | 2.0 | 0.00 | 0.00 | 0.00 | 88 | 1012.0 |
| 20260507165658 | 81 | 112 | 3.0 | 3.0 | 0.00 | 0.00 | 0.00 | 87 | 1012.0 |
| 20260507165159 | 81 | 154 | 2.0 | 2.0 | 0.00 | 0.00 | 0.00 | 87 | 1012.0 |
| 20260507164657 | 81 | 135 | 1.0 | 1.0 | 0.00 | 0.00 | 0.00 | 86 | 1012.0 |
| 20260507164157 | 82 | 138 | 2.0 | 2.0 | 0.00 | 0.00 | 0.00 | 86 | 1012.0 |
| 20260507163657 | 82 | 54 | 2.0 | 3.0 | 0.00 | 0.00 | 0.00 | 85 | 1012.0 |
| 20260507163158 | 82 | 138 | 2.0 | 2.0 | 0.00 | 0.00 | 0.00 | 85 | 1012.0 |
| 20260507162657 | 82 | 104 | 1.0 | 2.0 | 0.00 | 0.00 | 0.00 | 85 | 1012.0 |
| 20260507162157 | 82 | 153 | 2.0 | 3.0 | 0.00 | 0.00 | 0.00 | 85 | 1012.0 |
| 20260507161658 | 82 | 161 | 0.0 | 0.0 | 0.00 | 0.00 | 0.00 | 85 | 1012.0 |
| 20260507161157 | 82 | 102 | 0.0 | 0.0 | 0.00 | 0.00 | 0.00 | 85 | 1012.0 |
| 20260507160657 | 82 | 151 | 0.0 | 1.0 | 0.00 | 0.00 | 0.00 | 85 | 1012.0 |
| 20260507160157 | 83 | 123 | 1.0 | 1.0 | 0.00 | 0.00 | 0.00 | 85 | 1012.0 |
| 20260507155657 | 84 | 109 | 2.0 | 3.0 | 0.00 | 0.00 | 0.00 | 82 | 1012.0 |
| 20260507155157 | 84 | 149 | 0.0 | 0.0 | 0.00 | 0.00 | 0.00 | 81 | 1012.0 |
| 20260507154657 | 84 | 169 | 0.0 | 0.0 | 0.00 | 0.00 | 0.00 | 81 | 1012.0 |
| 20260507154158 | 84 | 170 | 0.0 | 0.0 | 0.00 | 0.00 | 0.00 | 81 | 1012.0 |
| 20260507153658 | 84 | 172 | 0.0 | 0.0 | 0.00 | 0.00 | 0.00 | 81 | 1012.0 |
| 20260507153159 | 85 | 168 | 1.0 | 1.0 | 0.00 | 0.00 | 0.00 | 81 | 1012.0 |
| 20260507152657 | 85 | 191 | 1.0 | 1.0 | 0.00 | 0.00 | 0.00 | 80 | 1012.0 |
| 20260507152157 | 85 | 222 | 2.0 | 2.0 | 0.00 | 0.00 | 0.00 | 80 | 1012.0 |
| 20260507151700 | 85 | 205 | 3.0 | 3.0 | 0.00 | 0.00 | 0.00 | 80 | 1012.0 |
| 20260507151157 | 85 | 167 | 1.0 | 2.0 | 0.00 | 0.00 | 0.00 | 80 | 1012.0 |
| 20260507150657 | 85 | 191 | 0.0 | 0.0 | 0.00 | 0.00 | 0.00 | 80 | 1012.0 |
| 20260507150157 | 85 | 192 | 0.0 | 0.0 | 0.00 | 0.00 | 0.00 | 80 | 1012.0 |
| 20260507145657 | 85 | 163 | 0.0 | 0.0 | 0.00 | 0.00 | 0.00 | 80 | 1012.0 |
| 20260507145158 | 85 | 233 | 1.0 | 1.0 | 0.00 | 0.00 | 0.00 | 80 | 1012.0 |
| 20260507144657 | 85 | 168 | 1.0 | 1.0 | 0.00 | 0.00 | 0.00 | 80 | 1012.0 |
| 20260507144157 | 85 | 186 | 1.0 | 1.0 | 0.00 | 0.00 | 0.00 | 80 | 1012.0 |
| 20260507143658 | 85 | 143 | 2.0 | 2.0 | 0.00 | 0.00 | 0.00 | 80 | 1012.0 |
| 20260507143157 | 85 | 208 | 3.0 | 3.0 | 0.00 | 0.00 | 0.00 | 80 | 1012.0 |
| 20260507142657 | 85 | 194 | 1.0 | 1.0 | 0.00 | 0.00 | 0.00 | 79 | 1012.0 |
| 20260507142157 | 85 | 182 | 0.0 | 0.0 | 0.00 | 0.00 | 0.00 | 79 | 1012.0 |
| 20260507141704 | 85 | 167 | 2.0 | 2.0 | 0.00 | 0.00 | 0.00 | 79 | 1012.0 |
| 20260507141157 | 85 | 204 | 0.0 | 0.0 | 0.00 | 0.00 | 0.00 | 79 | 1012.0 |
| 20260507140659 | 85 | 153 | 2.0 | 2.0 | 0.00 | 0.00 | 0.00 | 78 | 1012.0 |
| 20260507140158 | 85 | 283 | 4.0 | 6.0 | 0.00 | 0.00 | 0.00 | 78 | 1012.0 |
| 20260507135657 | 85 | 173 | 2.0 | 2.0 | 0.00 | 0.00 | 0.00 | 78 | 1012.0 |
| 20260507135157 | 85 | 246 | 3.0 | 3.0 | 0.00 | 0.00 | 0.00 | 78 | 1012.0 |
| 20260507134657 | 85 | 250 | 2.0 | 2.0 | 0.00 | 0.00 | 0.00 | 78 | 1012.0 |
| 20260507134157 | 85 | 160 | 3.0 | 3.0 | 0.00 | 0.00 | 0.00 | 78 | 1012.0 |
| 20260507133658 | 86 | 181 | 1.0 | 2.0 | 0.00 | 0.00 | 0.00 | 78 | 1012.0 |
| 20260507133157 | 86 | 193 | 2.0 | 2.0 | 0.00 | 0.00 | 0.00 | 77 | 1012.0 |
| 20260507132657 | 86 | 197 | 1.0 | 2.0 | 0.00 | 0.00 | 0.00 | 77 | 1012.0 |
| 20260507132158 | 86 | 169 | 1.0 | 1.0 | 0.00 | 0.00 | 0.00 | 77 | 1012.0 |
| 20260507131657 | 86 | 186 | 1.0 | 1.0 | 0.00 | 0.00 | 0.00 | 77 | 1012.0 |
| 20260507131159 | 86 | 224 | 3.0 | 3.0 | 0.00 | 0.00 | 0.00 | 77 | 1012.0 |
| 20260507130657 | 86 | 176 | 1.0 | 1.0 | 0.00 | 0.00 | 0.00 | 77 | 1012.0 |
| 20260507130158 | 86 | 210 | 3.0 | 3.0 | 0.00 | 0.00 | 0.00 | 76 | 1011.0 |
| 20260507125658 | 86 | 251 | 3.0 | 3.0 | 0.00 | 0.00 | 0.00 | 76 | 1011.0 |
| 20260507125200 | 86 | 316 | 5.0 | 5.0 | 0.00 | 0.00 | 0.00 | 76 | 1011.0 |
| 20260507124657 | 86 | 320 | 4.0 | 6.0 | 0.00 | 0.00 | 0.00 | 76 | 1011.0 |
| 20260507124158 | 86 | 286 | 2.0 | 2.0 | 0.00 | 0.00 | 0.00 | 76 | 1011.0 |
| 20260507123657 | 86 | 149 | 3.0 | 3.0 | 0.00 | 0.00 | 0.00 | 75 | 1011.0 |
| 20260507123157 | 86 | 219 | 3.0 | 5.0 | 0.00 | 0.00 | 0.00 | 75 | 1011.0 |
| 20260507122658 | 86 | 193 | 2.0 | 2.0 | 0.00 | 0.00 | 0.00 | 74 | 1011.0 |
| 20260507122158 | 86 | 258 | 2.0 | 3.0 | 0.00 | 0.00 | 0.00 | 74 | 1011.0 |
| 20260507121658 | 86 | 344 | 4.0 | 6.0 | 0.00 | 0.00 | 0.00 | 73 | 1011.0 |
| 20260507121157 | 86 | 174 | 2.0 | 2.0 | 0.00 | 0.00 | 0.00 | 73 | 1011.0 |
| 20260507120658 | 86 | 336 | 4.0 | 6.0 | 0.00 | 0.00 | 0.00 | 72 | 1010.0 |
| 20260507120157 | 86 | 284 | 3.0 | 3.0 | 0.00 | 0.00 | 0.00 | 72 | 1010.0 |
| 20260507115658 | 86 | 191 | 4.0 | 7.0 | 0.00 | 0.00 | 0.00 | 72 | 1010.0 |
| 20260507115157 | 86 | 282 | 4.0 | 5.0 | 0.00 | 0.00 | 0.00 | 72 | 1010.0 |
| 20260507114657 | 86 | 198 | 2.0 | 2.0 | 0.00 | 0.00 | 0.00 | 72 | 1010.0 |
| 20260507114157 | 86 | 327 | 3.0 | 5.0 | 0.00 | 0.00 | 0.00 | 72 | 1010.0 |
| 20260507113657 | 86 | 298 | 3.0 | 3.0 | 0.00 | 0.00 | 0.00 | 72 | 1010.0 |
| 20260507113157 | 86 | 292 | 3.0 | 5.0 | 0.00 | 0.00 | 0.00 | 71 | 1010.0 |
| 20260507112657 | 87 | 245 | 3.0 | 3.0 | 0.00 | 0.00 | 0.00 | 71 | 1010.0 |
| 20260507112157 | 87 | 312 | 5.0 | 6.0 | 0.00 | 0.00 | 0.00 | 71 | 1010.0 |
| 20260507111657 | 87 | 311 | 5.0 | 6.0 | 0.00 | 0.00 | 0.00 | 71 | 1010.0 |
| 20260507111157 | 87 | 185 | 2.0 | 2.0 | 0.00 | 0.00 | 0.00 | 71 | 1010.0 |
| 20260507110657 | 87 | 326 | 5.0 | 6.0 | 0.00 | 0.00 | 0.00 | 70 | 1010.0 |
| 20260507110159 | 87 | 167 | 1.0 | 1.0 | 0.00 | 0.00 | 0.00 | 71 | 1010.0 |
| 20260507105659 | 87 | 187 | 1.0 | 2.0 | 0.00 | 0.00 | 0.00 | 70 | 1010.0 |
| 20260507105157 | 87 | 232 | 2.0 | 2.0 | 0.00 | 0.00 | 0.00 | 69 | 1009.0 |
| 20260507104659 | 87 | 260 | 3.0 | 5.0 | 0.00 | 0.00 | 0.00 | 68 | 1009.0 |
| 20260507104157 | 87 | 252 | 5.0 | 6.0 | 0.00 | 0.00 | 0.00 | 67 | 1009.0 |
| 20260507103657 | 88 | 196 | 2.0 | 2.0 | 0.00 | 0.00 | 0.00 | 67 | 1009.0 |
| 20260507103158 | 88 | 212 | 3.0 | 3.0 | 0.00 | 0.00 | 0.00 | 66 | 1009.0 |
| 20260507102659 | 88 | 295 | 5.0 | 6.0 | 0.00 | 0.00 | 0.00 | 66 | 1009.0 |
| 20260507102158 | 88 | 286 | 3.0 | 5.0 | 0.00 | 0.00 | 0.00 | 65 | 1009.0 |
| 20260507101657 | 88 | 293 | 6.0 | 8.0 | 0.00 | 0.00 | 0.00 | 64 | 1009.0 |
| 20260507101157 | 88 | 257 | 5.0 | 6.0 | 0.00 | 0.00 | 0.00 | 64 | 1009.0 |
| 20260507100657 | 89 | 295 | 5.0 | 6.0 | 0.00 | 0.00 | 0.00 | 63 | 1009.0 |
| 20260507100158 | 89 | 312 | 6.0 | 6.0 | 0.00 | 0.00 | 0.00 | 61 | 1009.0 |
| 20260507095657 | 89 | 188 | 3.0 | 3.0 | 0.00 | 0.00 | 0.00 | 61 | 1009.0 |
| 20260507095157 | 89 | 235 | 4.0 | 5.0 | 0.00 | 0.00 | 0.00 | 61 | 1009.0 |
| 20260507094657 | 89 | 275 | 4.0 | 6.0 | 0.00 | 0.00 | 0.00 | 62 | 1009.0 |
| 20260507094157 | 89 | 275 | 5.0 | 6.0 | 0.00 | 0.00 | 0.00 | 61 | 1009.0 |
| 20260507093657 | 90 | 311 | 5.0 | 6.0 | 0.00 | 0.00 | 0.00 | 62 | 1009.0 |
| 20260507093157 | 90 | 258 | 5.0 | 6.0 | 0.00 | 0.00 | 0.00 | 62 | 1009.0 |
| 20260507092657 | 90 | 323 | 5.0 | 7.0 | 0.00 | 0.00 | 0.00 | 61 | 1009.0 |
| 20260507092157 | 90 | 202 | 2.0 | 3.0 | 0.00 | 0.00 | 0.00 | 61 | 1009.0 |
| 20260507091657 | 90 | 254 | 6.0 | 8.0 | 0.00 | 0.00 | 0.00 | 61 | 1009.0 |
| 20260507091157 | 90 | 268 | 5.0 | 6.0 | 0.00 | 0.00 | 0.00 | 61 | 1009.0 |
| 20260507090658 | 90 | 286 | 7.0 | 9.0 | 0.00 | 0.00 | 0.00 | 60 | 1009.0 |
| 20260507090157 | 90 | 232 | 8.0 | 9.0 | 0.00 | 0.00 | 0.00 | 60 | 1009.0 |
| 20260507085658 | 90 | 310 | 5.0 | 7.0 | 0.00 | 0.00 | 0.00 | 62 | 1009.0 |
| 20260507085157 | 90 | 312 | 8.0 | 10.0 | 0.00 | 0.00 | 0.00 | 63 | 1009.0 |
| 20260507084657 | 91 | 301 | 6.0 | 7.0 | 0.00 | 0.00 | 0.00 | 62 | 1009.0 |
| 20260507084158 | 91 | 265 | 7.0 | 8.0 | 0.00 | 0.00 | 0.00 | 60 | 1009.0 |
| 20260507083658 | 91 | 266 | 8.0 | 9.0 | 0.00 | 0.00 | 0.00 | 59 | 1009.0 |
| 20260507083158 | 91 | 303 | 7.0 | 7.0 | 0.00 | 0.00 | 0.00 | 59 | 1009.0 |
| 20260507082657 | 91 | 304 | 7.0 | 8.0 | 0.00 | 0.00 | 0.00 | 58 | 1009.0 |
| 20260507082157 | 90 | 294 | 5.0 | 6.0 | 0.00 | 0.00 | 0.00 | 60 | 1009.0 |
| 20260507081657 | 91 | 331 | 11.0 | 11.0 | 0.00 | 0.00 | 0.00 | 60 | 1009.0 |
| 20260507081157 | 91 | 323 | 9.0 | 10.0 | 0.00 | 0.00 | 0.00 | 62 | 1009.0 |
| 20260507080657 | 91 | 324 | 3.0 | 5.0 | 0.00 | 0.00 | 0.00 | 60 | 1009.0 |
| 20260507080158 | 91 | 284 | 7.0 | 8.0 | 0.00 | 0.00 | 0.00 | 60 | 1009.0 |
| 20260507075659 | 91 | 312 | 8.0 | 9.0 | 0.00 | 0.00 | 0.00 | 60 | 1009.0 |
| 20260507075158 | 91 | 296 | 6.0 | 11.0 | 0.00 | 0.00 | 0.00 | 62 | 1009.0 |
| 20260507074657 | 92 | 263 | 5.0 | 6.0 | 0.00 | 0.00 | 0.00 | 59 | 1009.0 |
| 20260507074158 | 92 | 177 | 5.0 | 5.0 | 0.00 | 0.00 | 0.00 | 58 | 1009.0 |
| 20260507073658 | 91 | 204 | 7.0 | 11.0 | 0.00 | 0.00 | 0.00 | 59 | 1009.0 |
| 20260507073157 | 91 | 296 | 6.0 | 7.0 | 0.00 | 0.00 | 0.00 | 59 | 1010.0 |
| 20260507072657 | 91 | 212 | 7.0 | 7.0 | 0.00 | 0.00 | 0.00 | 59 | 1010.0 |
| 20260507072158 | 91 | 324 | 8.0 | 11.0 | 0.00 | 0.00 | 0.00 | 60 | 1010.0 |
| 20260507071658 | 91 | 291 | 11.0 | 14.0 | 0.00 | 0.00 | 0.00 | 60 | 1010.0 |
| 20260507071158 | 91 | 261 | 9.0 | 10.0 | 0.00 | 0.00 | 0.00 | 60 | 1010.0 |
| 20260507070659 | 91 | 284 | 8.0 | 9.0 | 0.00 | 0.00 | 0.00 | 62 | 1010.0 |
| 20260507070157 | 91 | 290 | 4.0 | 6.0 | 0.00 | 0.00 | 0.00 | 60 | 1010.0 |
| 20260507065658 | 92 | 288 | 11.0 | 13.0 | 0.00 | 0.00 | 0.00 | 59 | 1010.0 |
| 20260507065157 | 91 | 304 | 5.0 | 7.0 | 0.00 | 0.00 | 0.00 | 58 | 1010.0 |
| 20260507064657 | 91 | 344 | 7.0 | 8.0 | 0.00 | 0.00 | 0.00 | 61 | 1010.0 |
| 20260507064158 | 91 | 214 | 6.0 | 9.0 | 0.00 | 0.00 | 0.00 | 61 | 1010.0 |
| 20260507063657 | 91 | 281 | 6.0 | 7.0 | 0.00 | 0.00 | 0.00 | 62 | 1010.0 |
| 20260507063159 | 91 | 196 | 7.0 | 7.0 | 0.00 | 0.00 | 0.00 | 62 | 1010.0 |
| 20260507062658 | 91 | 319 | 5.0 | 7.0 | 0.00 | 0.00 | 0.00 | 61 | 1010.0 |
| 20260507062157 | 91 | 316 | 11.0 | 13.0 | 0.00 | 0.00 | 0.00 | 61 | 1010.0 |
| 20260507061657 | 91 | 315 | 5.0 | 7.0 | 0.00 | 0.00 | 0.00 | 60 | 1010.0 |
| 20260507061158 | 91 | 288 | 10.0 | 14.0 | 0.00 | 0.00 | 0.00 | 59 | 1010.0 |
| 20260507060657 | 91 | 265 | 11.0 | 11.0 | 0.00 | 0.00 | 0.00 | 59 | 1010.0 |
| 20260507060157 | 91 | 311 | 11.0 | 13.0 | 0.00 | 0.00 | 0.00 | 60 | 1010.0 |
| 20260507055658 | 91 | 298 | 12.0 | 13.0 | 0.00 | 0.00 | 0.00 | 60 | 1010.0 |
| 20260507055157 | 91 | 269 | 8.0 | 10.0 | 0.00 | 0.00 | 0.00 | 58 | 1010.0 |
| 20260507054658 | 92 | 278 | 9.0 | 13.0 | 0.00 | 0.00 | 0.00 | 58 | 1010.0 |
| 20260507054158 | 92 | 320 | 9.0 | 10.0 | 0.00 | 0.00 | 0.00 | 57 | 1010.0 |
| 20260507053658 | 92 | 156 | 3.0 | 5.0 | 0.00 | 0.00 | 0.00 | 56 | 1010.0 |
| 20260507053157 | 92 | 295 | 9.0 | 11.0 | 0.00 | 0.00 | 0.00 | 56 | 1011.0 |
| 20260507052657 | 92 | 299 | 5.0 | 7.0 | 0.00 | 0.00 | 0.00 | 57 | 1011.0 |
| 20260507052158 | 92 | 290 | 8.0 | 9.0 | 0.00 | 0.00 | 0.00 | 56 | 1011.0 |
| 20260507051657 | 92 | 255 | 7.0 | 9.0 | 0.00 | 0.00 | 0.00 | 56 | 1010.0 |
| 20260507051157 | 92 | 283 | 7.0 | 9.0 | 0.00 | 0.00 | 0.00 | 56 | 1011.0 |
| 20260507050657 | 92 | 270 | 5.0 | 7.0 | 0.00 | 0.00 | 0.00 | 56 | 1011.0 |
| 20260507050158 | 93 | 284 | 9.0 | 10.0 | 0.00 | 0.00 | 0.00 | 54 | 1011.0 |
| 20260507045657 | 92 | 297 | 6.0 | 6.0 | 0.00 | 0.00 | 0.00 | 55 | 1011.0 |
| 20260507045157 | 92 | 250 | 5.0 | 6.0 | 0.00 | 0.00 | 0.00 | 56 | 1011.0 |
| 20260507044657 | 92 | 237 | 7.0 | 9.0 | 0.00 | 0.00 | 0.00 | 56 | 1011.0 |
| 20260507044157 | 92 | 280 | 8.0 | 10.0 | 0.00 | 0.00 | 0.00 | 56 | 1011.0 |
| 20260507043658 | 92 | 305 | 7.0 | 11.0 | 0.00 | 0.00 | 0.00 | 56 | 1011.0 |
| 20260507043158 | 91 | 275 | 7.0 | 8.0 | 0.00 | 0.00 | 0.00 | 56 | 1012.0 |
| 20260507042657 | 92 | 295 | 3.0 | 5.0 | 0.00 | 0.00 | 0.00 | 56 | 1012.0 |
| 20260507042157 | 92 | 272 | 3.0 | 5.0 | 0.00 | 0.00 | 0.00 | 56 | 1012.0 |
| 20260507041659 | 91 | 271 | 7.0 | 8.0 | 0.00 | 0.00 | 0.00 | 56 | 1011.0 |
| 20260507041157 | 92 | 293 | 9.0 | 10.0 | 0.00 | 0.00 | 0.00 | 55 | 1012.0 |
| 20260507040657 | 91 | 221 | 4.0 | 5.0 | 0.00 | 0.00 | 0.00 | 56 | 1012.0 |
| 20260507040157 | 92 | 346 | 7.0 | 13.0 | 0.00 | 0.00 | 0.00 | 56 | 1012.0 |
| 20260507035658 | 91 | 291 | 7.0 | 8.0 | 0.00 | 0.00 | 0.00 | 55 | 1012.0 |
| 20260507035158 | 91 | 208 | 9.0 | 10.0 | 0.00 | 0.00 | 0.00 | 54 | 1012.0 |
| 20260507034657 | 92 | 273 | 7.0 | 8.0 | 0.00 | 0.00 | 0.00 | 55 | 1012.0 |
| 20260507034159 | 92 | 263 | 5.0 | 7.0 | 0.00 | 0.00 | 0.00 | 55 | 1012.0 |
| 20260507033657 | 92 | 223 | 6.0 | 7.0 | 0.00 | 0.00 | 0.00 | 55 | 1012.0 |
| 20260507033158 | 92 | 272 | 3.0 | 5.0 | 0.00 | 0.00 | 0.00 | 58 | 1012.0 |
| 20260507032658 | 92 | 308 | 8.0 | 9.0 | 0.00 | 0.00 | 0.00 | 58 | 1012.0 |
| 20260507032157 | 91 | 231 | 4.0 | 5.0 | 0.00 | 0.00 | 0.00 | 61 | 1012.0 |
| 20260507031657 | 91 | 323 | 5.0 | 5.0 | 0.00 | 0.00 | 0.00 | 59 | 1012.0 |
| 20260507031157 | 91 | 269 | 7.0 | 8.0 | 0.00 | 0.00 | 0.00 | 58 | 1012.0 |
| 20260507030657 | 91 | 279 | 10.0 | 11.0 | 0.00 | 0.00 | 0.00 | 59 | 1012.0 |
| 20260507030158 | 90 | 248 | 2.0 | 2.0 | 0.00 | 0.00 | 0.00 | 64 | 1012.0 |
| 20260507025657 | 90 | 311 | 7.0 | 8.0 | 0.00 | 0.00 | 0.00 | 64 | 1012.0 |
| 20260507025157 | 90 | 110 | 3.0 | 3.0 | 0.00 | 0.00 | 0.00 | 65 | 1012.0 |
| 20260507024658 | 91 | 304 | 3.0 | 3.0 | 0.00 | 0.00 | 0.00 | 65 | 1013.0 |
| 20260507024157 | 89 | 242 | 4.0 | 5.0 | 0.00 | 0.00 | 0.00 | 67 | 1013.0 |
| 20260507023700 | 89 | 252 | 5.0 | 6.0 | 0.00 | 0.00 | 0.00 | 67 | 1013.0 |
| 20260507023157 | 88 | 276 | 6.0 | 8.0 | 0.00 | 0.00 | 0.00 | 69 | 1013.0 |
| 20260507022657 | 88 | 356 | 3.0 | 5.0 | 0.00 | 0.00 | 0.00 | 69 | 1013.0 |
| 20260507022157 | 89 | 48 | 3.0 | 5.0 | 0.00 | 0.00 | 0.00 | 70 | 1013.0 |
| 20260507021657 | 88 | 184 | 1.0 | 2.0 | 0.00 | 0.00 | 0.00 | 73 | 1012.0 |
| 20260507021158 | 87 | 81 | 3.0 | 3.0 | 0.00 | 0.00 | 0.00 | 73 | 1013.0 |
| 20260507020657 | 87 | 59 | 7.0 | 9.0 | 0.00 | 0.00 | 0.00 | 73 | 1013.0 |
| 20260507020157 | 89 | 200 | 2.0 | 3.0 | 0.00 | 0.00 | 0.00 | 72 | 1012.0 |
| 20260507015657 | 87 | 162 | 0.0 | 0.0 | 0.00 | 0.00 | 0.00 | 75 | 1013.0 |
| 20260507015157 | 86 | 159 | 0.0 | 0.0 | 0.00 | 0.00 | 0.00 | 77 | 1013.0 |
| 20260507014657 | 86 | 61 | 2.0 | 5.0 | 0.00 | 0.00 | 0.00 | 77 | 1013.0 |
| 20260507014159 | 87 | 170 | 1.0 | 1.0 | 0.00 | 0.00 | 0.00 | 77 | 1013.0 |
| 20260507013658 | 86 | 105 | 2.0 | 2.0 | 0.00 | 0.00 | 0.00 | 77 | 1013.0 |
| 20260507013158 | 86 | 143 | 2.0 | 2.0 | 0.00 | 0.00 | 0.00 | 78 | 1013.0 |
| 20260507012658 | 86 | 147 | 2.0 | 3.0 | 0.00 | 0.00 | 0.00 | 79 | 1013.0 |
| 20260507012157 | 85 | 151 | 2.0 | 2.0 | 0.00 | 0.00 | 0.00 | 80 | 1013.0 |
| 20260507011657 | 84 | 161 | 1.0 | 1.0 | 0.00 | 0.00 | 0.00 | 82 | 1013.0 |
| 20260507011157 | 84 | 132 | 2.0 | 2.0 | 0.00 | 0.00 | 0.00 | 82 | 1013.0 |
| 20260507010657 | 84 | 32 | 3.0 | 3.0 | 0.00 | 0.00 | 0.00 | 82 | 1013.0 |
| 20260507010157 | 84 | 146 | 2.0 | 2.0 | 0.00 | 0.00 | 0.00 | 82 | 1013.0 |
| 20260507005657 | 83 | 105 | 3.0 | 3.0 | 0.00 | 0.00 | 0.00 | 82 | 1013.0 |
| 20260507005157 | 83 | 152 | 2.0 | 3.0 | 0.00 | 0.00 | 0.00 | 83 | 1013.0 |
| 20260507004658 | 82 | 151 | 2.0 | 2.0 | 0.00 | 0.00 | 0.00 | 85 | 1013.0 |
| 20260507004157 | 82 | 160 | 2.0 | 2.0 | 0.00 | 0.00 | 0.00 | 85 | 1013.0 |
| 20260507003657 | 82 | 108 | 3.0 | 3.0 | 0.00 | 0.00 | 0.00 | 86 | 1013.0 |
| 20260507003158 | 81 | 148 | 2.0 | 2.0 | 0.00 | 0.00 | 0.00 | 86 | 1013.0 |
| 20260507002657 | 81 | 151 | 1.0 | 2.0 | 0.00 | 0.00 | 0.00 | 87 | 1013.0 |
| 20260507002158 | 81 | 112 | 1.0 | 2.0 | 0.00 | 0.00 | 0.00 | 88 | 1013.0 |
| 20260507001657 | 80 | 90 | 3.0 | 3.0 | 0.00 | 0.00 | 0.00 | 88 | 1013.0 |
| 20260507001157 | 80 | 148 | 1.0 | 1.0 | 0.00 | 0.00 | 0.00 | 89 | 1013.0 |
| 20260507000657 | 80 | 101 | 1.0 | 2.0 | 0.00 | 0.00 | 0.00 | 89 | 1013.0 |
| 20260507000157 | 80 | 112 | 2.0 | 2.0 | 0.00 | 0.00 | 0.00 | 88 | 1012.0 |
| 20260506235657 | 79 | 134 | 0.0 | 1.0 | 0.00 | 0.00 | 0.00 | 89 | 1012.0 |
| 20260506235158 | 79 | 77 | 4.0 | 5.0 | 0.00 | 0.00 | 0.00 | 89 | 1012.0 |
| 20260506234657 | 79 | 136 | 2.0 | 3.0 | 0.00 | 0.00 | 0.00 | 89 | 1012.0 |
| 20260506234157 | 79 | 142 | 2.0 | 2.0 | 0.00 | 0.00 | 0.00 | 90 | 1012.0 |
| 20260506233658 | 79 | 135 | 2.0 | 3.0 | 0.00 | 0.00 | 0.00 | 89 | 1012.0 |
| 20260506233158 | 79 | 150 | 2.0 | 2.0 | 0.00 | 0.00 | 0.00 | 90 | 1012.0 |
| 20260506232657 | 79 | 150 | 1.0 | 1.0 | 0.00 | 0.00 | 0.00 | 90 | 1012.0 |
| 20260506232157 | 78 | 145 | 1.0 | 1.0 | 0.00 | 0.00 | 0.00 | 91 | 1012.0 |
| 20260506231657 | 78 | 162 | 2.0 | 2.0 | 0.00 | 0.00 | 0.00 | 91 | 1012.0 |
| 20260506231157 | 78 | 141 | 1.0 | 2.0 | 0.00 | 0.00 | 0.00 | 92 | 1012.0 |
| 20260506230658 | 78 | 145 | 3.0 | 3.0 | 0.00 | 0.00 | 0.00 | 92 | 1012.0 |
| 20260506230157 | 78 | 139 | 2.0 | 2.0 | 0.00 | 0.00 | 0.00 | 93 | 1012.0 |
| 20260506225657 | 78 | 141 | 2.0 | 2.0 | 0.00 | 0.00 | 0.00 | 93 | 1012.0 |
| 20260506225157 | 77 | 161 | 1.0 | 1.0 | 0.00 | 0.00 | 0.00 | 94 | 1012.0 |
| 20260506224659 | 77 | 149 | 1.0 | 2.0 | 0.00 | 0.00 | 0.00 | 94 | 1012.0 |
| 20260506224159 | 77 | 157 | 0.0 | 0.0 | 0.00 | 0.00 | 0.00 | 94 | 1012.0 |
| 20260506223700 | 77 | 163 | 1.0 | 1.0 | 0.00 | 0.00 | 0.00 | 94 | 1012.0 |
| 20260506223157 | 77 | 158 | 1.0 | 2.0 | 0.00 | 0.00 | 0.00 | 94 | 1012.0 |
| 20260506222658 | 77 | 145 | 2.0 | 2.0 | 0.00 | 0.00 | 0.00 | 94 | 1012.0 |
| 20260506222158 | 77 | 140 | 1.0 | 2.0 | 0.00 | 0.00 | 0.00 | 94 | 1011.0 |
| 20260506221657 | 77 | 150 | 2.0 | 2.0 | 0.00 | 0.00 | 0.00 | 94 | 1011.0 |
| 20260506221157 | 77 | 147 | 1.0 | 1.0 | 0.00 | 0.00 | 0.00 | 94 | 1011.0 |
| 20260506220658 | 77 | 133 | 2.0 | 2.0 | 0.00 | 0.00 | 0.00 | 94 | 1011.0 |
| 20260506220157 | 77 | 141 | 1.0 | 1.0 | 0.00 | 0.00 | 0.00 | 94 | 1012.0 |
| 20260506215657 | 77 | 133 | 2.0 | 2.0 | 0.00 | 0.00 | 0.00 | 94 | 1011.0 |
| 20260506215157 | 77 | 152 | 0.0 | 0.0 | 0.00 | 0.00 | 0.00 | 94 | 1011.0 |
| 20260506214656 | 77 | 148 | 1.0 | 1.0 | 0.00 | 0.00 | 0.00 | 94 | 1011.0 |
| 20260506214158 | 77 | 138 | 2.0 | 2.0 | 0.00 | 0.00 | 0.00 | 94 | 1011.0 |
| 20260506213657 | 77 | 152 | 1.0 | 2.0 | 0.00 | 0.00 | 0.00 | 94 | 1011.0 |
| 20260506213157 | 77 | 158 | 0.0 | 0.0 | 0.00 | 0.00 | 0.00 | 94 | 1011.0 |
| 20260506212658 | 77 | 157 | 0.0 | 0.0 | 0.00 | 0.00 | 0.00 | 94 | 1011.0 |
| 20260506212157 | 77 | 159 | 0.0 | 1.0 | 0.00 | 0.00 | 0.00 | 94 | 1011.0 |
| 20260506211657 | 77 | 151 | 1.0 | 2.0 | 0.00 | 0.00 | 0.00 | 93 | 1011.0 |
| 20260506211157 | 77 | 155 | 1.0 | 1.0 | 0.00 | 0.00 | 0.00 | 93 | 1011.0 |
| 20260506210657 | 77 | 160 | 0.0 | 0.0 | 0.00 | 0.00 | 0.00 | 93 | 1011.0 |
| 20260506210157 | 78 | 146 | 1.0 | 1.0 | 0.00 | 0.00 | 0.00 | 93 | 1011.0 |
| 20260506205657 | 78 | 137 | 1.0 | 1.0 | 0.00 | 0.00 | 0.00 | 93 | 1011.0 |
| 20260506205157 | 78 | 154 | 1.0 | 1.0 | 0.00 | 0.00 | 0.00 | 93 | 1010.0 |
| 20260506204658 | 78 | 140 | 2.0 | 2.0 | 0.00 | 0.00 | 0.00 | 93 | 1011.0 |
| 20260506204157 | 78 | 135 | 3.0 | 3.0 | 0.00 | 0.00 | 0.00 | 93 | 1010.0 |
| 20260506203657 | 78 | 161 | 0.0 | 0.0 | 0.00 | 0.00 | 0.00 | 92 | 1011.0 |
| 20260506203158 | 78 | 142 | 0.0 | 1.0 | 0.00 | 0.00 | 0.00 | 92 | 1010.0 |
| 20260506202658 | 78 | 154 | 0.0 | 0.0 | 0.00 | 0.00 | 0.00 | 92 | 1010.0 |
| 20260506202157 | 78 | 135 | 1.0 | 2.0 | 0.00 | 0.00 | 0.00 | 92 | 1011.0 |
| 20260506201658 | 78 | 147 | 0.0 | 0.0 | 0.00 | 0.00 | 0.00 | 92 | 1011.0 |
| 20260506201158 | 78 | 143 | 1.0 | 2.0 | 0.00 | 0.00 | 0.00 | 91 | 1011.0 |
| 20260506200657 | 78 | 125 | 2.0 | 2.0 | 0.00 | 0.00 | 0.00 | 91 | 1011.0 |
| 20260506200157 | 78 | 122 | 1.0 | 2.0 | 0.00 | 0.00 | 0.00 | 91 | 1011.0 |
| 20260506195657 | 78 | 148 | 1.0 | 1.0 | 0.00 | 0.00 | 0.00 | 91 | 1011.0 |
| 20260506195200 | 78 | 124 | 1.0 | 2.0 | 0.00 | 0.00 | 0.00 | 91 | 1011.0 |
| 20260506194657 | 78 | 160 | 0.0 | 0.0 | 0.00 | 0.00 | 0.00 | 91 | 1011.0 |
| 20260506194157 | 78 | 131 | 3.0 | 3.0 | 0.00 | 0.00 | 0.00 | 91 | 1011.0 |
| 20260506193659 | 78 | 132 | 2.0 | 2.0 | 0.00 | 0.00 | 0.00 | 91 | 1011.0 |